Location: Shenandoah County Park
(38.9356°N, 78.4524°W)
Time: 08:11:42
(UTC-05:00)

Vanguard 1 Rocket - All Passes

Search period start: 04 December 2023 00:00
Search period end: 14 December 2023 00:00
Orbit: 656 x 4218 km, 34.3° (Epoch: 03 December)

Date Brightness Start Highest point End Pass type
(mag) Time Alt. Az. Time Alt. Az. Time Alt. Az.
04 Dec - 00:44:50 10° SE 00:50:10 11° SE 00:55:15 10° ESE visible
04 Dec - 02:58:55 10° SSW 03:19:55 36° SSE 03:34:15 10° E visible
04 Dec - 05:28:03 10° WSW 05:49:28 61° SSE 06:00:51 10° E visible
04 Dec - 08:01:22 10° W 08:17:21 70° S 08:25:15 10° ESE daylight
04 Dec - 10:33:38 10° W 10:42:45 38° SSW 10:48:09 10° SE daylight
05 Dec - 01:47:11 10° S 02:05:45 26° SE 02:20:20 10° E visible
05 Dec - 04:12:51 10° SW 04:35:42 52° SSE 04:49:13 10° E visible
05 Dec - 06:45:16 10° WSW 07:04:41 71° S 07:14:22 10° E visible
05 Dec - 09:18:41 10° W 09:31:25 56° SSW 09:38:03 10° ESE daylight
05 Dec - 11:51:02 10° W 11:55:15 15° SW 11:58:34 10° S daylight
06 Dec - 00:38:31 10° SSE 00:51:40 17° SE 01:03:27 10° ESE visible
06 Dec - 02:58:47 10° SSW 03:21:32 43° SSE 03:36:53 10° E visible
06 Dec - 05:29:08 10° WSW 05:51:22 67° SSE 06:03:09 10° E visible
06 Dec - 08:03:01 10° W 08:19:25 69° S 08:27:32 10° ESE daylight
06 Dec - 10:35:42 10° W 10:44:34 32° SW 10:49:58 10° SSE daylight
07 Dec - 01:46:16 10° SSW 02:07:11 33° SE 02:23:28 10° E visible
07 Dec - 04:13:33 10° SW 04:37:27 59° SSE 04:51:32 10° E visible
07 Dec - 06:46:45 10° W 07:06:42 73° S 07:16:39 10° E visible
07 Dec - 09:20:28 10° W 09:33:21 50° SSW 09:40:09 10° SE daylight
07 Dec - 11:54:52 10° WSW 11:56:49 11° SW 11:58:33 10° SW daylight
08 Dec - 00:35:57 10° S 00:52:59 22° SE 01:08:04 10° E visible
08 Dec - 02:59:02 10° SW 03:23:04 50° SSE 03:39:18 10° E visible
08 Dec - 05:30:22 10° WSW 05:53:16 71° S 06:05:25 10° E visible
08 Dec - 08:04:39 10° W 08:21:24 65° SSW 08:29:44 10° ESE daylight
08 Dec - 10:37:53 10° W 10:46:13 26° SW 10:51:33 10° SSE daylight
08 Dec - 23:30:42 10° SSE 23:39:07 12° SE 23:47:20 10° ESE visible
09 Dec - 01:45:58 10° SSW 02:08:32 39° SE 02:26:09 10° E visible
09 Dec - 04:14:29 10° WSW 04:39:10 65° SSE 04:53:46 10° E visible
09 Dec - 06:48:17 10° W 07:08:40 73° S 07:18:54 10° ESE visible
09 Dec - 09:22:16 10° W 09:35:09 44° SSW 09:42:06 10° SE daylight
10 Dec - 00:34:41 10° S 00:54:09 29° SE 01:11:32 10° E visible
10 Dec - 02:59:38 10° SW 03:24:36 57° SSE 03:41:34 10° E visible
10 Dec - 05:31:44 10° WSW 05:55:09 74° S 06:07:39 10° E visible
10 Dec - 08:06:17 10° W 08:23:18 61° SSW 08:31:53 10° ESE daylight
10 Dec - 10:40:18 10° W 10:47:44 20° SW 10:52:48 10° S daylight
10 Dec - 23:26:18 10° SSE 23:40:13 18° SE 23:53:54 10° E visible
11 Dec - 01:46:07 10° SSW 02:09:49 46° SSE 02:28:34 10° E visible
11 Dec - 04:15:37 10° WSW 04:40:53 70° SSE 04:55:58 10° E visible
11 Dec - 06:49:49 10° W 07:10:36 72° S 07:21:06 10° ESE visible
11 Dec - 09:24:07 10° W 09:36:48 37° SW 09:43:53 10° SSE daylight
12 Dec - 00:34:11 10° SSW 00:55:14 35° SE 01:14:22 10° E visible
12 Dec - 03:00:29 10° SW 03:26:05 63° SSE 03:43:44 10° E visible
12 Dec - 05:33:10 10° W 05:57:00 76° S 06:09:51 10° E visible
12 Dec - 08:07:55 10° W 08:25:05 55° SSW 08:33:54 10° SE daylight
12 Dec - 10:43:10 10° W 10:49:06 16° SW 10:53:32 10° SSW daylight
12 Dec - 23:24:23 10° S 23:41:11 24° SE 23:58:04 10° E visible
13 Dec - 01:46:37 10° SW 02:11:04 53° SSE 02:30:48 10° E visible
13 Dec - 04:16:55 10° WSW 04:42:35 74° S 04:58:07 10° E visible
13 Dec - 06:51:21 10° W 07:12:26 69° SSW 07:23:14 10° ESE visible
13 Dec - 09:26:03 10° W 09:38:17 31° SW 09:45:27 10° SSE daylight
13 Dec - 22:19:30 10° SE 22:27:45 13° SE 22:36:19 10° ESE visible
